Location: 22
(39.7117°N, 89.5929°W)
Time: 12:51:51
(UTC-06:00)

deb Explorer IX - All Passes

Search period start: 30 January 2023 00:00
Search period end: 09 February 2023 00:00
Orbit: 534 x 1049 km, 38.8° (Epoch: 30 January)

Date Brightness Start Highest point End Pass type
(mag) Time Alt. Az. Time Alt. Az. Time Alt. Az.
30 Jan - 04:33:23 10° SSW 04:36:40 23° SSE 04:39:52 10° E visible
30 Jan - 06:18:19 10° WSW 06:22:18 63° SSE 06:26:22 10° E visible
30 Jan - 08:04:11 10° W 08:08:14 77° S 08:12:37 10° E daylight
30 Jan - 09:50:09 10° W 09:54:08 38° SSW 09:58:32 10° SE daylight
30 Jan - 11:37:58 10° SW 11:39:45 12° SSW 11:41:37 10° SSW daylight
31 Jan - 04:01:02 10° SSW 04:04:15 21° SSE 04:07:20 10° ESE visible
31 Jan - 05:45:51 10° WSW 05:49:51 60° SSE 05:53:52 10° E visible
31 Jan - 07:31:46 10° W 07:35:47 78° S 07:40:02 10° E daylight
31 Jan - 09:17:44 10° W 09:21:39 40° SSW 09:25:58 10° SE daylight
31 Jan - 11:05:16 10° WSW 11:07:16 13° SSW 11:09:22 10° S daylight
01 Feb - 03:28:39 10° SSW 03:31:48 19° SSE 03:34:47 10° ESE visible
01 Feb - 05:13:21 10° WSW 05:17:25 57° SSE 05:21:22 10° E visible
01 Feb - 06:59:18 10° W 07:03:20 79° S 07:07:29 10° E daylight
01 Feb - 08:45:18 10° W 08:49:11 43° SSW 08:53:23 10° SE daylight
01 Feb - 10:32:35 10° WSW 10:34:47 14° SSW 10:37:05 10° S daylight
02 Feb - 02:56:15 10° SSW 02:59:19 18° SSE 03:02:13 10° ESE night (unlit)
02 Feb - 04:40:49 10° WSW 04:44:56 53° SSE 04:48:53 10° E visible
02 Feb - 06:26:48 10° W 06:30:51 80° S 06:34:55 10° E visible
02 Feb - 08:12:50 10° W 08:16:43 46° SSW 08:20:49 10° SE daylight
02 Feb - 09:59:56 10° WSW 10:02:17 14° SSW 10:04:45 10° S daylight
03 Feb - 02:23:49 10° S 02:26:50 17° SSE 02:29:38 10° ESE night (unlit)
03 Feb - 04:08:14 10° WSW 04:12:27 50° SSE 04:16:23 10° E visible
03 Feb - 05:54:14 10° W 05:58:21 80° S 06:02:23 10° E visible
03 Feb - 07:40:20 10° W 07:44:13 49° SSW 07:48:15 10° ESE daylight
03 Feb - 09:27:16 10° WSW 09:29:47 16° SSW 09:32:25 10° S daylight
04 Feb - 01:51:23 10° S 01:54:17 16° SSE 01:57:01 10° ESE night (unlit)
04 Feb - 03:35:36 10° SW 03:39:56 47° SSE 03:43:54 10° E visible
04 Feb - 05:21:38 10° W 05:25:50 80° S 05:29:51 10° E visible
04 Feb - 07:07:47 10° W 07:11:44 52° SSW 07:15:42 10° ESE daylight
04 Feb - 08:54:37 10° WSW 08:57:17 17° SSW 09:00:03 10° S daylight
05 Feb - 01:18:54 10° S 01:21:44 15° SSE 01:24:22 10° ESE night (unlit)
05 Feb - 03:02:56 10° SW 03:07:24 45° SSE 03:11:25 10° E visible
05 Feb - 04:48:59 10° W 04:53:18 79° S 04:57:20 10° E visible
05 Feb - 06:35:13 10° W 06:39:13 56° SSW 06:43:10 10° ESE visible
05 Feb - 08:21:56 10° WSW 08:24:46 18° SSW 08:27:40 10° SSE daylight
06 Feb - 00:46:26 10° S 00:49:08 14° SSE 00:51:41 10° ESE night (unlit)
06 Feb - 02:30:13 10° SW 02:34:50 43° SSE 02:38:55 10° E night (unlit)
06 Feb - 04:16:17 10° W 04:20:44 79° S 04:24:49 10° E visible
06 Feb - 06:02:34 10° W 06:06:41 59° SSW 06:10:38 10° ESE visible
06 Feb - 07:49:15 10° WSW 07:52:14 20° SSW 07:55:17 10° SSE daylight
07 Feb - 00:13:58 10° S 00:16:31 13° SSE 00:18:56 10° ESE night (unlit)
07 Feb - 01:57:28 10° SW 02:02:13 41° SSE 02:06:24 10° E night (unlit)
07 Feb - 03:43:31 10° W 03:48:09 77° S 03:52:18 10° E visible
07 Feb - 05:29:54 10° W 05:34:07 63° SSW 05:38:06 10° ESE visible
07 Feb - 07:16:32 10° W 07:19:42 22° SSW 07:22:52 10° SSE daylight
07 Feb - 23:41:32 10° S 23:43:52 13° SE 23:46:06 10° ESE night (unlit)
08 Feb - 01:24:41 10° SW 01:29:34 39° SSE 01:33:52 10° E night (unlit)
08 Feb - 03:10:43 10° WSW 03:15:32 76° S 03:19:47 10° E visible
08 Feb - 04:57:10 10° W 05:01:32 67° S 05:05:34 10° ESE visible
08 Feb - 06:43:47 10° W 06:47:09 25° SSW 06:50:28 10° SSE daylight
08 Feb - 23:09:08 10° SSE 23:11:11 12° SE 23:13:10 10° ESE night (unlit)
